Location: Plainartige
(45.6866°N, 1.7993°E)
Time: 16:49:25
(UTC+00:00)

Tiros 1 - Pass Details

Date: 28 May 2022
Orbit: 629 x 663 km, 48.4° (Epoch: 05 July)

Event Time Altitude Azimuth Distance (km) Brightness Sun altitude
Rises 03:23:06 0° 282° (WNW) 2,925 10.2 -7.3°
Reaches altitude 10° 03:25:26 10° 286° (WNW) 2,021 9.4 -7.0°
Maximum altitude 03:30:04 66° 9° (N) 698 7.6 -6.4°
Drops below altitude 10° 03:34:45 10° 92° (E) 2,039 10.5 -5.8°
Sets 03:37:07 0° 95° (E) 2,954 11.3 -5.4°
